<?xml version="1.0"?>
<gpx xmlns="http://www.topografix.com/GPX/1/1" xmlns:xsi="http://www.w3.org/2001/XMLSchema-instance" version="1.1" creator="GPX RubyGem 1.0.0 -- http://dougfales.github.io/gpx/" xsi:schemaLocation="http://www.topografix.com/GPX/1/1 http://www.topografix.com/GPX/1/1/gpx.xsd">
  <metadata>
    <name/>
    <time>2026-05-09T05:11:59+00:00</time>
    <bound minlat="90.0" minlon="180.0" maxlat="-90.0" maxlon="-180.0"/>
  </metadata>
  <trk>
    <name/>
    <trkseg>
      <trkpt lat="50.333537" lon="9.048157">
        <time>1970-01-01T00:00:00+00:00</time>
        <ele>143.0</ele>
      </trkpt>
      <trkpt lat="50.333516" lon="9.04837">
        <time>1970-01-01T00:00:00+00:00</time>
        <ele>144.0</ele>
      </trkpt>
      <trkpt lat="50.333538" lon="9.048376">
        <time>1970-01-01T00:00:00+00:00</time>
        <ele>144.0</ele>
      </trkpt>
      <trkpt lat="50.334194" lon="9.048553">
        <time>1970-01-01T00:00:00+00:00</time>
        <ele>143.0</ele>
      </trkpt>
      <trkpt lat="50.334824" lon="9.04872">
        <time>1970-01-01T00:00:00+00:00</time>
        <ele>143.0</ele>
      </trkpt>
      <trkpt lat="50.335143" lon="9.048822">
        <time>1970-01-01T00:00:00+00:00</time>
        <ele>142.0</ele>
      </trkpt>
      <trkpt lat="50.335408" lon="9.048975">
        <time>1970-01-01T00:00:00+00:00</time>
        <ele>144.0</ele>
      </trkpt>
      <trkpt lat="50.335818" lon="9.048158">
        <time>1970-01-01T00:00:00+00:00</time>
        <ele>139.0</ele>
      </trkpt>
      <trkpt lat="50.336269" lon="9.047154">
        <time>1970-01-01T00:00:00+00:00</time>
        <ele>140.0</ele>
      </trkpt>
      <trkpt lat="50.336291" lon="9.047003">
        <time>1970-01-01T00:00:00+00:00</time>
        <ele>140.0</ele>
      </trkpt>
      <trkpt lat="50.336311" lon="9.046944">
        <time>1970-01-01T00:00:00+00:00</time>
        <ele>140.0</ele>
      </trkpt>
      <trkpt lat="50.336366" lon="9.046921">
        <time>1970-01-01T00:00:00+00:00</time>
        <ele>140.0</ele>
      </trkpt>
      <trkpt lat="50.336596" lon="9.046913">
        <time>1970-01-01T00:00:00+00:00</time>
        <ele>139.0</ele>
      </trkpt>
      <trkpt lat="50.337138" lon="9.046736">
        <time>1970-01-01T00:00:00+00:00</time>
        <ele>140.0</ele>
      </trkpt>
      <trkpt lat="50.337188" lon="9.046695">
        <time>1970-01-01T00:00:00+00:00</time>
        <ele>141.0</ele>
      </trkpt>
      <trkpt lat="50.337774" lon="9.045838">
        <time>1970-01-01T00:00:00+00:00</time>
        <ele>144.0</ele>
      </trkpt>
      <trkpt lat="50.338446" lon="9.04728">
        <time>1970-01-01T00:00:00+00:00</time>
        <ele>144.0</ele>
      </trkpt>
      <trkpt lat="50.339" lon="9.048511">
        <time>1970-01-01T00:00:00+00:00</time>
        <ele>144.0</ele>
      </trkpt>
      <trkpt lat="50.339019" lon="9.048578">
        <time>1970-01-01T00:00:00+00:00</time>
        <ele>144.0</ele>
      </trkpt>
      <trkpt lat="50.339013" lon="9.048641">
        <time>1970-01-01T00:00:00+00:00</time>
        <ele>143.0</ele>
      </trkpt>
      <trkpt lat="50.338794" lon="9.048983">
        <time>1970-01-01T00:00:00+00:00</time>
        <ele>143.0</ele>
      </trkpt>
      <trkpt lat="50.338784" lon="9.049076">
        <time>1970-01-01T00:00:00+00:00</time>
        <ele>142.0</ele>
      </trkpt>
      <trkpt lat="50.339265" lon="9.050158">
        <time>1970-01-01T00:00:00+00:00</time>
        <ele>141.0</ele>
      </trkpt>
      <trkpt lat="50.339514" lon="9.050781">
        <time>1970-01-01T00:00:00+00:00</time>
        <ele>143.0</ele>
      </trkpt>
      <trkpt lat="50.340024" lon="9.052392">
        <time>1970-01-01T00:00:00+00:00</time>
        <ele>146.0</ele>
      </trkpt>
      <trkpt lat="50.34039" lon="9.053479">
        <time>1970-01-01T00:00:00+00:00</time>
        <ele>145.0</ele>
      </trkpt>
      <trkpt lat="50.340535" lon="9.05418">
        <time>1970-01-01T00:00:00+00:00</time>
        <ele>148.0</ele>
      </trkpt>
      <trkpt lat="50.340567" lon="9.054665">
        <time>1970-01-01T00:00:00+00:00</time>
        <ele>149.0</ele>
      </trkpt>
      <trkpt lat="50.340447" lon="9.055119">
        <time>1970-01-01T00:00:00+00:00</time>
        <ele>145.0</ele>
      </trkpt>
      <trkpt lat="50.340403" lon="9.055416">
        <time>1970-01-01T00:00:00+00:00</time>
        <ele>144.0</ele>
      </trkpt>
      <trkpt lat="50.34039" lon="9.056315">
        <time>1970-01-01T00:00:00+00:00</time>
        <ele>143.0</ele>
      </trkpt>
      <trkpt lat="50.340605" lon="9.056621">
        <time>1970-01-01T00:00:00+00:00</time>
        <ele>144.0</ele>
      </trkpt>
      <trkpt lat="50.340907" lon="9.057837">
        <time>1970-01-01T00:00:00+00:00</time>
        <ele>147.0</ele>
      </trkpt>
      <trkpt lat="50.340983" lon="9.058232">
        <time>1970-01-01T00:00:00+00:00</time>
        <ele>149.0</ele>
      </trkpt>
      <trkpt lat="50.341046" lon="9.058459">
        <time>1970-01-01T00:00:00+00:00</time>
        <ele>152.0</ele>
      </trkpt>
      <trkpt lat="50.341265" lon="9.058767">
        <time>1970-01-01T00:00:00+00:00</time>
        <ele>157.0</ele>
      </trkpt>
      <trkpt lat="50.341489" lon="9.059158">
        <time>1970-01-01T00:00:00+00:00</time>
        <ele>156.0</ele>
      </trkpt>
      <trkpt lat="50.341524" lon="9.059315">
        <time>1970-01-01T00:00:00+00:00</time>
        <ele>155.0</ele>
      </trkpt>
      <trkpt lat="50.341546" lon="9.05967">
        <time>1970-01-01T00:00:00+00:00</time>
        <ele>153.0</ele>
      </trkpt>
      <trkpt lat="50.341467" lon="9.059824">
        <time>1970-01-01T00:00:00+00:00</time>
        <ele>154.0</ele>
      </trkpt>
      <trkpt lat="50.341335" lon="9.060005">
        <time>1970-01-01T00:00:00+00:00</time>
        <ele>157.0</ele>
      </trkpt>
      <trkpt lat="50.341408" lon="9.059999">
        <time>1970-01-01T00:00:00+00:00</time>
        <ele>156.0</ele>
      </trkpt>
      <trkpt lat="50.341508" lon="9.060079">
        <time>1970-01-01T00:00:00+00:00</time>
        <ele>154.0</ele>
      </trkpt>
      <trkpt lat="50.341721" lon="9.060862">
        <time>1970-01-01T00:00:00+00:00</time>
        <ele>154.0</ele>
      </trkpt>
      <trkpt lat="50.341699" lon="9.06097">
        <time>1970-01-01T00:00:00+00:00</time>
        <ele>156.0</ele>
      </trkpt>
      <trkpt lat="50.341689" lon="9.061007">
        <time>1970-01-01T00:00:00+00:00</time>
        <ele>156.0</ele>
      </trkpt>
      <trkpt lat="50.341614" lon="9.061087">
        <time>1970-01-01T00:00:00+00:00</time>
        <ele>158.0</ele>
      </trkpt>
      <trkpt lat="50.34157" lon="9.061238">
        <time>1970-01-01T00:00:00+00:00</time>
        <ele>160.0</ele>
      </trkpt>
      <trkpt lat="50.341642" lon="9.061571">
        <time>1970-01-01T00:00:00+00:00</time>
        <ele>161.0</ele>
      </trkpt>
      <trkpt lat="50.341708" lon="9.06181">
        <time>1970-01-01T00:00:00+00:00</time>
        <ele>161.0</ele>
      </trkpt>
      <trkpt lat="50.341708" lon="9.06181">
        <time>1970-01-01T00:00:00+00:00</time>
        <ele>161.0</ele>
      </trkpt>
      <trkpt lat="50.34185" lon="9.062329">
        <time>1970-01-01T00:00:00+00:00</time>
        <ele>157.0</ele>
      </trkpt>
      <trkpt lat="50.342198" lon="9.062356">
        <time>1970-01-01T00:00:00+00:00</time>
        <ele>154.0</ele>
      </trkpt>
      <trkpt lat="50.342208" lon="9.062138">
        <time>1970-01-01T00:00:00+00:00</time>
        <ele>153.0</ele>
      </trkpt>
      <trkpt lat="50.342198" lon="9.061614">
        <time>1970-01-01T00:00:00+00:00</time>
        <ele>152.0</ele>
      </trkpt>
      <trkpt lat="50.342235" lon="9.061476">
        <time>1970-01-01T00:00:00+00:00</time>
        <ele>151.0</ele>
      </trkpt>
      <trkpt lat="50.342523" lon="9.062253">
        <time>1970-01-01T00:00:00+00:00</time>
        <ele>151.0</ele>
      </trkpt>
      <trkpt lat="50.342591" lon="9.062397">
        <time>1970-01-01T00:00:00+00:00</time>
        <ele>150.0</ele>
      </trkpt>
      <trkpt lat="50.34272" lon="9.062672">
        <time>1970-01-01T00:00:00+00:00</time>
        <ele>149.0</ele>
      </trkpt>
      <trkpt lat="50.34281" lon="9.062757">
        <time>1970-01-01T00:00:00+00:00</time>
        <ele>147.0</ele>
      </trkpt>
      <trkpt lat="50.342887" lon="9.062985">
        <time>1970-01-01T00:00:00+00:00</time>
        <ele>146.0</ele>
      </trkpt>
      <trkpt lat="50.342761" lon="9.064523">
        <time>1970-01-01T00:00:00+00:00</time>
        <ele>148.0</ele>
      </trkpt>
      <trkpt lat="50.342787" lon="9.064849">
        <time>1970-01-01T00:00:00+00:00</time>
        <ele>147.0</ele>
      </trkpt>
      <trkpt lat="50.342853" lon="9.065299">
        <time>1970-01-01T00:00:00+00:00</time>
        <ele>148.0</ele>
      </trkpt>
      <trkpt lat="50.342877" lon="9.065647">
        <time>1970-01-01T00:00:00+00:00</time>
        <ele>148.0</ele>
      </trkpt>
      <trkpt lat="50.342795" lon="9.065832">
        <time>1970-01-01T00:00:00+00:00</time>
        <ele>148.0</ele>
      </trkpt>
      <trkpt lat="50.342703" lon="9.065782">
        <time>1970-01-01T00:00:00+00:00</time>
        <ele>149.0</ele>
      </trkpt>
      <trkpt lat="50.342585" lon="9.065712">
        <time>1970-01-01T00:00:00+00:00</time>
        <ele>150.0</ele>
      </trkpt>
      <trkpt lat="50.342466" lon="9.065652">
        <time>1970-01-01T00:00:00+00:00</time>
        <ele>150.0</ele>
      </trkpt>
      <trkpt lat="50.34243" lon="9.065634">
        <time>1970-01-01T00:00:00+00:00</time>
        <ele>150.0</ele>
      </trkpt>
      <trkpt lat="50.342374" lon="9.065645">
        <time>1970-01-01T00:00:00+00:00</time>
        <ele>150.0</ele>
      </trkpt>
      <trkpt lat="50.342252" lon="9.065726">
        <time>1970-01-01T00:00:00+00:00</time>
        <ele>150.0</ele>
      </trkpt>
      <trkpt lat="50.341999" lon="9.065957">
        <time>1970-01-01T00:00:00+00:00</time>
        <ele>154.0</ele>
      </trkpt>
      <trkpt lat="50.341908" lon="9.065984">
        <time>1970-01-01T00:00:00+00:00</time>
        <ele>158.0</ele>
      </trkpt>
      <trkpt lat="50.341867" lon="9.065932">
        <time>1970-01-01T00:00:00+00:00</time>
        <ele>160.0</ele>
      </trkpt>
      <trkpt lat="50.341817" lon="9.065814">
        <time>1970-01-01T00:00:00+00:00</time>
        <ele>162.0</ele>
      </trkpt>
      <trkpt lat="50.341849" lon="9.065336">
        <time>1970-01-01T00:00:00+00:00</time>
        <ele>162.0</ele>
      </trkpt>
      <trkpt lat="50.341846" lon="9.064826">
        <time>1970-01-01T00:00:00+00:00</time>
        <ele>163.0</ele>
      </trkpt>
      <trkpt lat="50.341809" lon="9.064432">
        <time>1970-01-01T00:00:00+00:00</time>
        <ele>163.0</ele>
      </trkpt>
      <trkpt lat="50.341745" lon="9.064041">
        <time>1970-01-01T00:00:00+00:00</time>
        <ele>164.0</ele>
      </trkpt>
      <trkpt lat="50.34166" lon="9.063686">
        <time>1970-01-01T00:00:00+00:00</time>
        <ele>164.0</ele>
      </trkpt>
      <trkpt lat="50.341529" lon="9.063263">
        <time>1970-01-01T00:00:00+00:00</time>
        <ele>166.0</ele>
      </trkpt>
      <trkpt lat="50.341461" lon="9.063087">
        <time>1970-01-01T00:00:00+00:00</time>
        <ele>168.0</ele>
      </trkpt>
      <trkpt lat="50.341074" lon="9.062248">
        <time>1970-01-01T00:00:00+00:00</time>
        <ele>176.0</ele>
      </trkpt>
      <trkpt lat="50.340924" lon="9.061805">
        <time>1970-01-01T00:00:00+00:00</time>
        <ele>175.0</ele>
      </trkpt>
      <trkpt lat="50.340865" lon="9.061517">
        <time>1970-01-01T00:00:00+00:00</time>
        <ele>173.0</ele>
      </trkpt>
      <trkpt lat="50.340737" lon="9.060495">
        <time>1970-01-01T00:00:00+00:00</time>
        <ele>172.0</ele>
      </trkpt>
      <trkpt lat="50.34062" lon="9.059993">
        <time>1970-01-01T00:00:00+00:00</time>
        <ele>172.0</ele>
      </trkpt>
      <trkpt lat="50.340477" lon="9.059574">
        <time>1970-01-01T00:00:00+00:00</time>
        <ele>172.0</ele>
      </trkpt>
      <trkpt lat="50.339829" lon="9.058245">
        <time>1970-01-01T00:00:00+00:00</time>
        <ele>166.0</ele>
      </trkpt>
      <trkpt lat="50.33967" lon="9.057806">
        <time>1970-01-01T00:00:00+00:00</time>
        <ele>167.0</ele>
      </trkpt>
      <trkpt lat="50.339535" lon="9.057078">
        <time>1970-01-01T00:00:00+00:00</time>
        <ele>170.0</ele>
      </trkpt>
      <trkpt lat="50.339281" lon="9.055396">
        <time>1970-01-01T00:00:00+00:00</time>
        <ele>168.0</ele>
      </trkpt>
      <trkpt lat="50.339163" lon="9.054754">
        <time>1970-01-01T00:00:00+00:00</time>
        <ele>166.0</ele>
      </trkpt>
      <trkpt lat="50.33853" lon="9.05233">
        <time>1970-01-01T00:00:00+00:00</time>
        <ele>163.0</ele>
      </trkpt>
      <trkpt lat="50.338373" lon="9.051906">
        <time>1970-01-01T00:00:00+00:00</time>
        <ele>160.0</ele>
      </trkpt>
      <trkpt lat="50.338173" lon="9.051572">
        <time>1970-01-01T00:00:00+00:00</time>
        <ele>158.0</ele>
      </trkpt>
      <trkpt lat="50.337928" lon="9.051351">
        <time>1970-01-01T00:00:00+00:00</time>
        <ele>160.0</ele>
      </trkpt>
      <trkpt lat="50.336236" lon="9.049741">
        <time>1970-01-01T00:00:00+00:00</time>
        <ele>154.0</ele>
      </trkpt>
      <trkpt lat="50.335742" lon="9.04924">
        <time>1970-01-01T00:00:00+00:00</time>
        <ele>149.0</ele>
      </trkpt>
      <trkpt lat="50.335408" lon="9.048975">
        <time>1970-01-01T00:00:00+00:00</time>
        <ele>144.0</ele>
      </trkpt>
      <trkpt lat="50.335143" lon="9.048822">
        <time>1970-01-01T00:00:00+00:00</time>
        <ele>142.0</ele>
      </trkpt>
      <trkpt lat="50.334824" lon="9.04872">
        <time>1970-01-01T00:00:00+00:00</time>
        <ele>143.0</ele>
      </trkpt>
      <trkpt lat="50.334194" lon="9.048553">
        <time>1970-01-01T00:00:00+00:00</time>
        <ele>143.0</ele>
      </trkpt>
      <trkpt lat="50.333538" lon="9.048376">
        <time>1970-01-01T00:00:00+00:00</time>
        <ele>144.0</ele>
      </trkpt>
      <trkpt lat="50.333516" lon="9.04837">
        <time>1970-01-01T00:00:00+00:00</time>
        <ele>144.0</ele>
      </trkpt>
      <trkpt lat="50.333537" lon="9.048157">
        <time>1970-01-01T00:00:00+00:00</time>
        <ele>143.0</ele>
      </trkpt>
    </trkseg>
  </trk>
</gpx>
